Location: Bergnerzell
(49.1816°N, 10.2565°E)
Time: 04:16:11
(UTC+00:00)

IDEFIX/ARIANE 42P - Pass Details

Date: 19 August 2024
Orbit: 782 x 799 km, 98.5° (Epoch: 08 September)

Event Time Altitude Azimuth Distance (km) Brightness Sun altitude
Rises 23:55:33 0° 26° (NNE) 3,287 6.9 -27.7°
Reaches altitude 10° 23:58:26 10° 42° (NE) 2,355 5.7 -27.6°
Maximum altitude 00:02:20 21° 91° (E) 1,707 4.3 -27.5°
Enters shadow 00:03:01 21° 102° (ESE) 1,730 4.3 -27.5°
